STARLINK-34650, 66258

Orbit data source: Space-Track

STARLINK-34650, 66258 is a payload satellite owned by SpaceX/Seattle (US) in LEO that was launched on Wed, 29 Oct 2025 UTC via an FALCON 9 launch vehicle from the Air Force Eastern Test Range (AFETR). Payload-class satellites include a variety of spacecraft equipped with specific instruments for various scientific and technological missions. These include communications satellites like Starlink; space stations such as the ISS; scientific satellites like the Hubble; Earth observation satellites from companies like Planet Labs, Umbra, and HawkEye 360; GPS; miniature CubeSats for education and research; and military/defense satellites.

Loading next visibility...
Identifier
66258, 2025-245AA
Orbit
LEO
Country
Flag of USUS
Related business
Manufacturer
SpaceX/Seattle
Mission
Operational Commercial Communications
Bus & Motor
STARLINK V2MO, Unknown motor
Mass
575 kg wet, ~530 kg dry
Launch date (UTC)
2025-10-29 (8 months ago)
Launch vehicle
FALCON 9
Launch site
Air Force Eastern Test Range (AFETR)
Object type
Payload
Rocket body
Debris
Shape & HBR
Box + 2 Pan, 17.7 m
Radar Cross Section
36.964 m², Large (>1 m²)

Expand to show TLE details & history
Last TLE update: 14 hours ago

TLE from 14 hours ago
0 STARLINK-34650
1 66258U 25245AA  26171.25819453  .00013102  00000-0  45363-3 0  9990
2 66258  53.1599 167.2213 0001296  92.4922 267.6228 15.30205626 36966
Epoch: 2026-06-20T06:11Z
TLE epoch observation values (Epoch: 2026-06-20T06:11:48.007Z)
Latitude
0.00005°
Longitude
165.79591°
Altitude
476.135 km
Speed
7.629 km/s
True Right ascension
11h 08m 53s
True Declination
0° 00' 00"
Sunlit
Object was in daylight at epoch
Visualization orbit readout
Latitude
Unknown
Longitude
Unknown
Altitude
Unknown
Speed
Unknown
Apparent Right ascension
Unknown
Apparent Declination
Unknown
Sunlit
N/A
Visualization observer readout
Local Sidereal Time
07:17:26
Azimuth
Unknown
Elevation
Unknown
Doppler factor
Unknown
Orbital elements
Apogee altitude
476.343 km
Perigee altitude
474.566 km
Semi-major axis
6,853.592 km
Eccentricity
0.00013
Inclination
53.1599°
RAAN
167.2213°
Arg. of periapsis
92.4922°
True anomaly
267.60796°
Mean anomaly
267.6228°
Eccentric anomaly
267.61538°
Mean motion
3.8253 °/min
Orbital period
94.11 mins
BSTAR
0.00045363
Loading maneuver chart data...
Computing Atmospheric mass density...
Loading historical data...
Loading historical data...
Loading historical data...
Loading historical data...
Loading historical data...
Loading historical data...
Loading historical data...

Documentation

Showing up to 5 results
|